Regional Weather Roundup
Issued by NWS Nashville, TN

Current Version | Previous Version | Text Only | Print | Product List | Glossary On
Versions: 1 2 3 4 5 6 7 8 9 10 11 12 13 14 15 16 17 18 19 20 21 22 23 24 25 26 27 28 29 30 31 32 33 34 35 36 37 38 39 40 41 42 43 44 45 46 47 48 49 50
000
ASUS44 KOHX 242210
RWROHX
MIDDLE TENNESSEE HOURLY WEATHER ROUNDUP
NATIONAL WEATHER SERVICE NASHVILLE TN
500 PM CDT SAT SEP 24 2016

NOTE: "FAIR" INDICATES FEW OR NO CLOUDS BELOW 12,000 FEET WITH
NO SIGNIFICANT WEATHER AND/OR OBSTRUCTIONS TO VISIBILITY.

* THESE REPORTS ARE NOT UNDER NWS QUALITY CONTROL AND MAY NOT
  REPORT WEATHER SUCH AS PRECIPITATION AND FOG.


TNZ005>011-023>034-057-059-062>066-078-080-242300
...NORTHERN MIDDLE TENNESSEE...

CITY           SKY/WX    TMP DP  RH WIND       PRES   REMARKS
CLARKSVILLE    SUNNY     87  66  49 NE6       30.05F
CROSSVILLE     SUNNY     85  61  44 N6        30.12S
GALLATIN       SUNNY     88  63  42 N7        30.09S
DICKSON        SUNNY     87  64  46 NE5       30.07F
LEBANON        SUNNY     88  62  41 N7        30.05F
NASHVILLE      MOSUNNY   90  60  36 NE8       30.06F
WEST NASHVILLE SUNNY     90  61  37 N7        30.05S
PORTLAND       SUNNY     86  64  48 E6        30.07F
SMYRNA         SUNNY     90  64  42 N9        30.06F HX  91
SPARTA         SUNNY     88  64  45 VRB5      30.08R
SPRINGFIELD    SUNNY     88  64  45 NE5       30.06S
$$
TNZ056-058-060-061-075>077-079-093>097-242300
...SOUTHERN MIDDLE TENNESSEE...

CITY           SKY/WX    TMP DP  RH WIND       PRES   REMARKS
COLUMBIA       SUNNY     90  66  45 N6        30.05S HX  92
FAYETTEVILLE   PTSUNNY   88  61  40 NE6       30.06S
MCMINNVILLE    SUNNY     88  64  45 N9        30.08S
SHELBYVILLE    SUNNY     91  63  38 N7        30.06F HX  92
TULLAHOMA      SUNNY     88  57  35 N8        30.08S
WINCHESTER     SUNNY     90  61  37 VRB3      30.06S
$$


...KEY TO REMARKS...
VSB - VISIBILITY IN MILES
WCI - WIND CHILL INDEX
HX  - HEAT INDEX




USA.gov is the U.S. government's official web portal to all federal, state and local government web resources and services.